EI4HQ Weather Reports


time (UTC)temp
F
wind
direction
speed
knots
gust
knots
rain 1hr
in
rain 24hr
in
rain mn
in
humidity
%
barometer
mb
20260503021803 49 333 1.7 3.5 0.00 0.08 0.00 90 1010.1
20260503020903 49 333 2.6 3.5 0.00 0.08 0.00 90 1010.1
20260503020003 49 333 2.6 4.3 0.00 0.08 0.00 89 1010.2
20260503015403 49 333 2.6 4.3 0.00 0.08 0.00 89 1010.3
20260503014503 50 333 2.6 4.3 0.00 0.08 0.00 90 1010.4
20260503013603 50 333 2.6 4.3 0.00 0.08 0.00 90 1010.4
20260503012703 50 333 2.6 4.3 0.00 0.08 0.00 90 1010.5
20260503011803 50 333 3.5 4.3 0.00 0.08 0.00 90 1010.6
20260503010903 50 333 3.5 4.3 0.00 0.08 0.00 89 1010.6
20260503010003 50 332 3.5 5.2 0.00 0.08 0.00 89 1010.6
20260503005403 50 330 3.5 5.2 0.00 0.08 0.00 89 1010.7
20260503004503 50 334 3.5 5.2 0.00 0.09 0.00 89 1010.7
20260503003603 50 336 3.5 5.2 0.00 0.09 0.00 89 1010.8
20260503002703 50 333 3.5 5.2 0.00 0.09 0.00 89 1010.8
20260503001803 50 325 1.7 3.5 0.00 0.09 0.00 89 1010.9
20260503000903 50 279 0.9 2.6 0.00 0.09 0.00 89 1010.9
20260503000003 50 0 0.0 0.0 0.00 0.09 0.00 89 1010.9
20260502235403 50 0 0.0 0.0 0.00 0.09 0.00 89 1011.0
20260502234503 50 250 0.0 0.9 0.00 0.09 0.00 89 1011.0
20260502233603 49 250 0.0 1.7 0.00 0.09 0.00 89 1011.1
20260502232703 49 250 0.9 2.6 0.00 0.09 0.00 89 1011.1
20260502231803 49 250 0.0 2.6 0.00 0.09 0.00 89 1011.1
20260502230903 49 250 0.0 0.9 0.00 0.09 0.00 89 1011.1
20260502230003 49 250 0.0 1.7 0.00 0.10 0.00 89 1011.1
20260502225403 49 250 0.0 1.7 0.00 0.10 0.10 89 1011.1
20260502224503 49 250 0.0 0.9 0.00 0.10 0.10 89 1011.2
20260502223603 49 250 0.0 0.9 0.00 0.10 0.10 89 1011.2
20260502222703 49 250 0.0 0.9 0.00 0.10 0.10 88 1011.3
20260502221803 49 234 0.9 2.6 0.00 0.10 0.10 88 1011.3
20260502220903 49 222 0.9 3.5 0.00 0.10 0.10 88 1011.3
20260502220003 49 222 0.0 1.7 0.00 0.10 0.10 88 1011.4
20260502215403 49 216 0.9 1.7 0.00 0.10 0.10 88 1011.3
20260502214503 49 188 0.0 1.7 0.00 0.10 0.10 88 1011.4
20260502213603 49 188 0.0 1.7 0.00 0.10 0.10 88 1011.4
20260502212705 49 0 0.0 0.0 0.00 0.10 0.10 88 1011.4
20260502211803 50 0 0.0 0.0 0.00 0.10 0.10 88 1011.4
20260502210903 50 0 0.0 0.0 0.00 0.10 0.10 87 1011.4
20260502210003 50 0 0.0 0.0 0.00 0.10 0.10 87 1011.4
20260502205403 50 0 0.0 0.0 0.00 0.10 0.10 87 1011.4
20260502204503 50 0 0.0 0.0 0.00 0.10 0.10 87 1011.3
20260502203603 51 188 0.0 2.6 0.00 0.10 0.10 87 1011.4
20260502202703 51 188 1.7 2.6 0.00 0.10 0.10 87 1011.3
20260502201803 51 174 1.7 3.5 0.00 0.10 0.10 87 1011.2
20260502200903 51 188 1.7 3.5 0.00 0.10 0.10 87 1011.2
20260502200003 51 187 0.9 2.6 0.00 0.10 0.10 87 1011.1
20260502195403 51 194 0.9 3.5 0.00 0.10 0.10 87 1011.0
20260502194503 51 184 1.7 3.5 0.00 0.10 0.10 87 1011.0
20260502193603 52 174 1.7 3.5 0.00 0.10 0.10 86 1011.1
20260502192703 52 170 1.7 3.5 0.00 0.10 0.10 87 1011.0
20260502191803 52 152 2.6 4.3 0.00 0.10 0.10 86 1011.1
20260502190903 52 171 2.6 4.3 0.00 0.10 0.10 86 1011.0
20260502190004 52 176 3.5 5.2 0.00 0.10 0.10 86 1011.2
20260502185403 52 180 2.6 5.2 0.00 0.10 0.10 86 1011.2
20260502184503 52 177 3.5 5.2 0.00 0.10 0.10 86 1011.2
20260502183603 52 164 3.5 6.1 0.00 0.10 0.10 86 1011.3
20260502182703 53 158 4.3 6.1 0.00 0.10 0.10 85 1011.3
20260502181803 53 157 5.2 7.0 0.00 0.10 0.10 85 1011.3
20260502180903 53 157 4.3 7.0 0.00 0.10 0.10 85 1011.2
20260502163603 54 177 3.5 7.0 0.00 0.10 0.10 85 1011.7
20260502162703 54 179 4.3 7.8 0.00 0.10 0.10 84 1011.7
20260502161803 54 173 5.2 7.8 0.00 0.10 0.10 84 1011.7
20260502160903 55 173 4.3 7.8 0.00 0.10 0.10 84 1011.6
20260502151803 55 161 5.2 8.7 0.00 0.10 0.10 85 1012.0
20260502150903 54 159 7.0 9.6 0.00 0.10 0.10 85 1012.1
20260502123603 54 158 7.8 11.3 0.00 0.10 0.10 88 1013.3
20260502122703 54 158 8.7 14.8 0.00 0.10 0.10 88 1013.4
20260502121803 55 158 8.7 12.2 0.00 0.10 0.10 88 1013.5
20260502120903 55 156 7.8 11.3 0.00 0.10 0.10 87 1013.6
20260502115403 56 148 7.0 10.4 0.00 0.10 0.10 86 1013.5
20260502114503 57 153 6.1 8.7 0.00 0.10 0.10 87 1013.5
20260502113603 56 147 7.8 10.4 0.00 0.10 0.10 87 1013.7
20260502112703 55 149 7.8 11.3 0.00 0.10 0.10 87 1013.8
20260502111803 56 151 7.0 11.3 0.00 0.10 0.10 87 1013.8
20260502110903 56 152 6.1 11.3 0.00 0.10 0.10 89 1013.9
20260502110003 55 151 7.0 11.3 0.00 0.10 0.10 89 1013.9
20260502105403 55 148 7.0 11.3 0.00 0.10 0.10 90 1014.0
20260502104503 54 147 7.8 11.3 0.00 0.10 0.10 89 1014.0
20260502103603 54 146 7.8 11.3 0.00 0.10 0.10 89 1014.0
20260502102703 54 151 7.0 10.4 0.00 0.10 0.10 88 1013.9
20260502101803 55 162 5.2 10.4 0.00 0.10 0.10 88 1014.0
20260502100903 55 175 6.1 8.7 0.00 0.10 0.10 90 1014.0
20260502090903 53 192 3.5 8.7 0.00 0.10 0.10 91 1014.3
20260502070903 52 179 7.0 13.0 0.03 0.11 0.10 92 1014.3
20260502070003 52 175 7.8 14.8 0.03 0.11 0.10 92 1014.2
20260502065403 52 175 7.8 11.3 0.04 0.11 0.10 92 1014.2
20260502064503 52 176 7.8 13.0 0.03 0.10 0.09 92 1014.3
20260502063603 52 175 7.8 13.0 0.02 0.09 0.09 92 1014.3
20260502062703 52 179 7.0 12.2 0.01 0.08 0.07 92 1014.3
20260502061803 52 178 7.0 13.0 0.01 0.08 0.07 92 1014.3
20260502060903 52 170 9.6 14.8 0.01 0.08 0.07 92 1014.3
20260502060003 52 169 9.6 15.6 0.01 0.08 0.07 92 1014.2
20260502055403 52 171 8.7 14.8 0.00 0.07 0.06 92 1014.2
20260502054503 52 166 9.6 14.8 0.01 0.07 0.06 92 1014.2
20260502053603 52 169 8.7 14.8 0.01 0.07 0.06 92 1014.2
20260502052703 52 174 8.7 14.8 0.02 0.07 0.06 92 1014.3
20260502051803 52 174 9.6 14.8 0.02 0.07 0.06 92 1014.3
20260502050903 52 167 8.7 13.9 0.03 0.07 0.06 92 1014.3
20260502050003 52 167 8.7 14.8 0.03 0.07 0.06 92 1014.3
20260502045403 52 169 8.7 14.8 0.03 0.07 0.06 92 1014.4
20260502044504 52 170 8.7 16.5 0.03 0.06 0.06 92 1014.4
20260502043603 52 166 8.7 14.8 0.03 0.06 0.06 92 1014.5
20260502042703 52 169 8.7 13.0 0.02 0.05 0.04 92 1014.6
20260502041803 52 161 10.4 19.1 0.02 0.05 0.04 92 1014.7
20260502040903 52 160 9.6 13.9 0.01 0.04 0.03 92 1014.7
20260502040003 52 159 8.7 13.9 0.01 0.04 0.03 92 1014.8
20260502034503 52 164 9.6 17.4 0.00 0.03 0.02 92 1014.9
20260502033603 52 166 8.7 17.4 0.00 0.03 0.02 92 1014.9
20260502032703 52 166 8.7 13.9 0.00 0.03 0.02 91 1015.0
20260502031803 52 164 7.8 13.9 0.00 0.03 0.02 92 1015.1
20260502030903 52 163 7.0 11.3 0.00 0.03 0.02 91 1015.2
20260502030003 52 161 7.0 11.3 0.00 0.03 0.02 91 1015.3
20260502025403 53 163 6.1 10.4 0.00 0.03 0.02 91 1015.4
20260502024503 53 166 7.0 12.2 0.00 0.03 0.02 91 1015.6
20260502023603 53 166 7.0 10.4 0.00 0.03 0.02 91 1015.7
20260502022703 53 171 6.1 10.4 0.00 0.03 0.02 91 1015.7